Elwood, MO

2:25 AM CDT on July 29, 2016 (GMT -0500)
Rosecrans Memorial

Weather History for KSTJ - January, 2012

Change the Weather History Date:

Sunday, January 15, 2012

  Actual Average Record
Temperature  
Mean Temperature 39 °F 27 °F  
Max Temperature 61 °F 37 °F 66 °F (2006)
Min Temperature 17 °F 17 °F -16 °F (1979)
Degree Days  
Heating Degree Days 26 38  
Month to date heating degree days 475 573  
Since 1 July heating degree days 2377 2786  
Cooling Degree Days 0 0  
Month to date cooling degree days 0 0  
Year to date cooling degree days 0 0  
Moisture  
Dew Point 24 °F    
Average Humidity 63    
Maximum Humidity 100    
Minimum Humidity 25    
Precipitation  
Precipitation 0.00 in 0.01 in 0.75 in (1949)
Month to date precipitation 0.01 0.25  
Year to date precipitation 0.01 0.25  
Sea Level Pressure  
Sea Level Pressure 29.98 in    
Wind  
Wind Speed 12 mph (South)    
Max Wind Speed 23 mph    
Max Gust Speed 29 mph    
Visibility 10 miles    
Events      
T = Trace of Precipitation, MM = Missing Value Source: NWS Daily Summary

Daily Weather History Graph

Daily Weather History Graph

Search for Another Location

Airport or City:

Trip Planner

Search our weather history database for the weather conditions in past years. The results will help you decide how hot, cold, wet, or windy it might be!

Date:

Astronomy

Jan. 15, 2012 Rise Set
Actual Time 7:39 AM CST 5:19 PM CST
Civil Twilight 7:09 AM CST 5:48 PM CST
Nautical Twilight 6:36 AM CST 6:21 PM CST
Astronomical Twilight 6:03 AM CST 6:54 PM CST
Moon No Moon Rise 10:58 AM CST (1/15)
Length of Visible Light 10h 39m
Length of Day
9h 39m
Waning Gibbous, 57% of the Moon is Illuminated
Jan 15
Waning Gibbous
Jan 16
Last Quarter
Jan 23
New
Jan 30
First Quarter
Feb 7
Full

Hourly Weather History & Observations

Time (CST) Temp. Windchill Dew Point Humidity Pressure Visibility Wind Dir Wind Speed Gust Speed Precip Events Conditions
12:53 AM 21.0 °F 16.2 °F 19.0 °F 92% 30.21 in 10.0 mi SE 3.5 mph - N/A   Clear
1:53 AM 19.9 °F - 17.1 °F 89% 30.20 in 6.0 mi Calm Calm - N/A   Clear
2:53 AM 18.0 °F - 16.0 °F 92% 30.19 in 8.0 mi Calm Calm - N/A   Clear
3:53 AM 19.9 °F - 19.0 °F 96% 30.17 in 9.0 mi Calm Calm - N/A   Clear
4:53 AM 18.0 °F 12.7 °F 17.1 °F 96% 30.16 in 10.0 mi South 3.5 mph - N/A   Clear
5:53 AM 30.9 °F 21.7 °F 23.0 °F 72% 30.14 in 10.0 mi SSE 11.5 mph - N/A   Clear
6:53 AM 30.0 °F 21.7 °F 23.0 °F 75% 30.12 in 10.0 mi South 9.2 mph - N/A   Clear
7:53 AM 32.0 °F 22.5 °F 24.1 °F 73% 30.10 in 10.0 mi South 12.7 mph - N/A   Clear
8:53 AM 37.0 °F 27.4 °F 25.0 °F 62% 30.07 in 10.0 mi South 17.3 mph 20.7 mph N/A   Clear
9:53 AM 41.0 °F 32.8 °F 25.0 °F 53% 30.05 in 10.0 mi SSE 16.1 mph 20.7 mph N/A   Clear
10:53 AM 46.9 °F - 27.0 °F 46% 30.02 in 10.0 mi South 24.2 mph 28.8 mph N/A   Clear
11:53 AM 51.8 °F - 26.6 °F 38% 29.94 in 10.0 mi South 13.8 mph - N/A   Clear
12:53 PM 53.1 °F - 27.0 °F 37% 29.92 in 10.0 mi South 19.6 mph - N/A   Clear
1:53 PM 57.9 °F - 28.0 °F 32% 29.87 in 10.0 mi South 17.3 mph - N/A   Clear
2:53 PM 60.1 °F - 26.1 °F 27% 29.85 in 10.0 mi South 13.8 mph - N/A   Clear
3:53 PM 60.1 °F - 25.0 °F 26% 29.83 in 10.0 mi South 15.0 mph 23.0 mph N/A   Clear
4:53 PM 55.9 °F - 25.0 °F 30% 29.82 in 10.0 mi South 11.5 mph - N/A   Clear
5:53 PM 53.1 °F - 24.1 °F 32% 29.81 in 10.0 mi South 10.4 mph - N/A   Clear
6:53 PM 54.0 °F - 26.1 °F 34% 29.82 in 10.0 mi South 19.6 mph 25.3 mph N/A   Clear
7:53 PM 51.1 °F - 26.1 °F 38% 29.83 in 10.0 mi South 16.1 mph - N/A   Clear
8:53 PM 48.9 °F - 25.0 °F 39% 29.84 in 10.0 mi South 15.0 mph - N/A   Clear
9:53 PM 46.9 °F - 26.1 °F 44% 29.84 in 10.0 mi South 12.7 mph - N/A   Clear
10:53 PM 46.0 °F 41.0 °F 28.0 °F 50% 29.83 in 10.0 mi South 10.4 mph - N/A   Clear
11:53 PM 46.0 °F 40.6 °F 30.0 °F 54% 29.80 in 10.0 mi South 11.5 mph - N/A   Clear